Location: Moscow
(55.7500°N, 37.5830°E)
Time: 04:25:32
(UTC+03:00)

Kosmos-337 - Pass Details

Date: 03 July 2022
Orbit: 1467 x 1552 km, 74.0° (Epoch: 13 August)

Event Time Altitude Azimuth Distance (km) Brightness Sun altitude
Rises 02:12:55 0° 332° (NNW) 4,737 ? -8.5°
Reaches altitude 10° 02:15:59 10° 328° (NNW) 3,751 ? -8.3°
Maximum altitude 02:24:44 52° 256° (WSW) 1,858 ? -7.8°
Drops below altitude 10° 02:33:24 10° 184° (S) 3,699 ? -7.3°
Enters shadow 02:35:26 - 181° (S) 4,351 ? -7.1°
